Location: La Fredeussais
(48.1780°N, 1.3980°W)
Time: 16:42:29
(UTC+00:00)

USA 307 - Pass Details

Date: 09 May 2021
Orbit: 566 x 577 km, 54.0° (Epoch: 10 May)

Event Time Altitude Azimuth Distance (km) Brightness Sun altitude
Rises 22:42:46 0° 298° (WNW) 2,780 7.1 -21.9°
Reaches altitude 10° 22:45:04 10° 293° (WNW) 1,881 6.1 -22.0°
Enters shadow 22:48:53 51° 236° (SW) 730 3.2 -22.2°
